Weather in Syezzheye

Russia / Samara Oblast     53°00′54″N   51°12′08″E
temp.,
°C
wind,
m/s
gust,
m/s
humid.,
%
clouds,
%
prec.,
mm/h
press.,
hPa
HPBL,
m
28 june, tue
tue2801:00+17w499616 2.6 1011208
04:00+16nnw5109730 2.6 1011388
07:00+15nne698879 0.0 1013682
10:00+15nne78620 0.0 1014891
13:00+17nne78515 0.0 10151408
16:00+17n79484 0.0 10152045
19:00+14nne69675 0.0 10161318
22:00+9n34780 0.0 101863
29 june, wed
wed2901:00+8nnw37800 0.0 1018145
04:00+6n49841 0.0 1018211
07:00+9n59695 0.0 1019592
10:00+13n676167 0.0 10181276
13:00+15nne6859100 0.0 10181544
16:00+16n3657100 0.0 10171248
19:00+16nw1265100 0.0 1016140
22:00+14nw23665 0.0 101653
30 june, thu
thu3001:00+10nw22845 0.0 101521
04:00+9wnw22855 0.0 101424
07:00+13wnw36756 0.0 1014253
10:00+18wnw465898 0.0 1012905
13:00+21nw6847100 0.0 10102429
16:00+20nw6751100 0.0 10092028
19:00+16nnw696824 0.6 1010634
22:00+10wnw412945 1.2 1011289
1 july, fri
fri101:00+9nw5118963 0.0 1011299
04:00+7nw410925 0.0 1011245
07:00+9nw61188100 0.0 1011511
10:00+10nnw7129199 1.3 1012758
13:00+11n81187100 0.3 1012921
16:00+12n5118489 0.6 1013711
19:00+13n71281100 1.1 1013592
22:00+11nnw6138819 1.2 1014355
2 july, sat
sat201:00+10nnw614885 0.0 1014302
04:00+9nnw512895 0.0 1014216
07:00+13n49781 0.0 1015298
10:00+18n57570 0.0 10151018
13:00+21n57498 0.0 10141996
16:00+22nnw57461 0.0 10142000
19:00+21wnw246263 0.0 1013131
22:00+15wnw33737 0.0 101328